This is the latest recevied weather packets stored in our database for station/object YB3RDW-13. If no packets are shown the sender has not sent any weather packets the latest 10 day(s).
| Time | Temp. | Humidity | Pressure | Rain* | Wind** | Luminosity | Snow |
|---|---|---|---|---|---|---|---|
| 1778056018 | 32.78° C | 57% | 1009 hPa | 0 mm | - | 178 W/m² | - |
| 1778055717 | 32.78° C | 57% | 1009 hPa | 0 mm | - | 192 W/m² | - |
| 1778055418 | 32.78° C | 57% | 1009 hPa | 0 mm | - | 207 W/m² | - |
| 1778055117 | 32.78° C | 57% | 1009 hPa | 0 mm | - | 207 W/m² | - |
| 1778054818 | 32.78° C | 56% | 1009 hPa | 0 mm | - | 221 W/m² | - |
| 1778054517 | 32.78° C | 58% | 1009 hPa | 0 mm | - | 240 W/m² | - |
| 1778054217 | 32.78° C | 56% | 1009 hPa | 0 mm | - | 255 W/m² | - |
| 1778053918 | 32.78° C | 57% | 1009 hPa | 0 mm | - | 276 W/m² | - |
| 1778053617 | 32.78° C | 55% | 1009 hPa | 0 mm | - | 285 W/m² | - |
| 1778053318 | 33.33° C | 56% | 1009 hPa | 0 mm | - | 285 W/m² | - |
| 1778053018 | 32.78° C | 56% | 1009 hPa | 0 mm | - | 313 W/m² | - |
| 1778052719 | 33.33° C | 56% | 1009 hPa | 0 mm | - | 336 W/m² | - |
| 1778052417 | 33.33° C | 55% | 1009 hPa | 0 mm | - | 339 W/m² | - |
| 1778052118 | 32.78° C | 55% | 1009 hPa | 0 mm | - | 366 W/m² | - |
| 1778051817 | 33.33° C | 55% | 1009 hPa | 0 mm | - | 393 W/m² | - |
| 1778051517 | 33.33° C | 54% | 1009 hPa | 0 mm | - | 402 W/m² | - |
| 1778051217 | 33.33° C | 54% | 1009 hPa | 0 mm | - | 420 W/m² | - |
| 1778050918 | 33.33° C | 55% | 1009 hPa | 0 mm | - | 416 W/m² | - |
| 1778050617 | 33.33° C | 54% | 1009 hPa | 0 mm | - | 428 W/m² | - |
| 1778050317 | 33.33° C | 54% | 1009 hPa | 0 mm | - | 444 W/m² | - |
| 1778050017 | 33.33° C | 57% | 1009 hPa | 0 mm | - | 475 W/m² | - |
| 1778049718 | 33.33° C | 57% | 1009 hPa | 0 mm | - | 485 W/m² | - |
| 1778049417 | 33.33° C | 58% | 1009 hPa | 0 mm | - | 479 W/m² | - |
| 1778049118 | 33.33° C | 57% | 1009 hPa | 0 mm | - | 517 W/m² | - |
| 1778048818 | 33.33° C | 58% | 1009 hPa | 0 mm | - | 510 W/m² | - |
* Rain latest hour (hover to see other rain measurements)
** Current wind speed in m/s (hover to see current wind gust speed)